User: anonymous   Login
Location: Hepcat Sky Observatory
(29.9800°N, 95.6500°W)
Time: 02:59:05
(UTC-05:00)
Language:

Cosmos 2151 Rocket - Orbit

View from above orbital plane
View from above orbital plane
View from above satellite
View from above satellite

Ground track
Ground track

The orbit data is extracted from the following two-line orbital elements,

1 21423U 91042B   15147.79855668  .00000203  00000-0  24043-4 0  9992
2 21423 082.4928 303.4965 0017535 186.5443 173.5544 14.79500211291471
Epoch (UTC): 27 May 2015 19:09:55
Eccentricity: 0.0017535
inclination: 82.4928°
perigee height: 618 km
apogee height: 643 km
right ascension of ascending node: 303.4965°
argument of perigee: 186.5443°
revolutions per day: 14.79500211
mean anomaly at epoch: 173.5544°
orbit number at epoch: 29147

The dashed part of the orbit path shows where the satellite is in the earth's shadow,  

DLR